This is the latest recevied weather packets stored in our database for station/object K9JWM. If no packets are shown the sender has not sent any weather packets the latest 10 day(s).
| Time | Temp. | Humidity | Pressure | Rain* | Wind** | Luminosity | Snow |
|---|---|---|---|---|---|---|---|
| 1777686431 | 5° C | 54% | 1019.2 hPa | 0 mm | - | - | - |
| 1777685531 | 5.56° C | 52% | 1019.1 hPa | 0 mm | - | - | - |
| 1777684630 | 6.11° C | 51% | 1019 hPa | 0 mm | - | - | - |
| 1777683730 | 6.67° C | 50% | 1018.9 hPa | 0 mm | - | - | - |
| 1777682829 | 7.22° C | 47% | 1019 hPa | 0 mm | - | - | - |
| 1777681930 | 7.78° C | 46% | 1019 hPa | 0 mm | - | - | - |
| 1777681030 | 7.78° C | 43% | 1019 hPa | 0 mm | - | - | - |
| 1777680130 | 7.78° C | 43% | 1018.9 hPa | 0 mm | - | - | - |
| 1777679230 | 8.33° C | 42% | 1018.8 hPa | 0 mm | - | - | - |
| 1777678330 | 8.33° C | 42% | 1018.9 hPa | 0 mm | - | - | - |
| 1777677429 | 8.33° C | 44% | 1018.9 hPa | 0 mm | - | - | - |
| 1777676530 | 8.33° C | 42% | 1018.9 hPa | 0 mm | - | - | - |
| 1777675629 | 8.33° C | 42% | 1018.9 hPa | 0 mm | - | - | - |
| 1777674730 | 7.78° C | 45% | 1018.8 hPa | 0 mm | - | - | - |
| 1777673830 | 8.33° C | 43% | 1019 hPa | 0 mm | - | - | - |
| 1777672929 | 8.33° C | 39% | 1019 hPa | 0 mm | - | - | - |
| 1777672029 | 8.33° C | 41% | 1018.9 hPa | 0 mm | - | - | - |
| 1777671130 | 8.33° C | 40% | 1019.2 hPa | 0 mm | - | - | - |
| 1777670229 | 8.33° C | 40% | 1019.1 hPa | 0 mm | - | - | - |
| 1777669330 | 7.78° C | 41% | 1019.2 hPa | 0 mm | - | - | - |
| 1777668429 | 8.33° C | 43% | 1019 hPa | 0 mm | - | - | - |
| 1777667529 | 7.78° C | 42% | 1019.2 hPa | 0 mm | - | - | - |
| 1777666629 | 7.78° C | 43% | 1019.1 hPa | 0 mm | - | - | - |
| 1777665730 | 7.22° C | 47% | 1019.2 hPa | 0 mm | - | - | - |
| 1777664830 | 7.78° C | 47% | 1019.2 hPa | 0 mm | - | - | - |
* Rain latest hour (hover to see other rain measurements)
** Current wind speed in m/s (hover to see current wind gust speed)